Voltar ao catálogo

COSMOS 374 DEB *

AtivoLEO
NORAD 5028·DEBRIS·🇷🇺 Russia

Lançado Oct 23, 1970 de Baikonur Cosmodrome

Loading…

Próximas Passagens (próximas 24 horas)

TLE

AtualizadoSource: Space-Track

Época: Sep 14, 2026, 15:13 UTC

1 05028U 70089Z   26257.63431025  .00000039  00000-0  11483-3 0  9997
2 05028  63.3112  28.8985 0647946 298.1858  55.5165 13.13904888618401

Acompanhe COSMOS 374 DEB * em tempo real com AllMySat

Download on the App Store